Regional Weather Roundup
Issued by NWS

Home | Current Version | Previous Version | Graphics & Text | Print | Product List | Glossary On
Versions: 1 2 3 4 5 6 7 8 9 10 11 12 13 14 15 16 17 18 19 20 21 22 23 24 25 26 27 28 29 30 31 32 33 34 35 36 37 38 39 40 41 42 43 44 45 46 47 48 49 50
000
ASUS43 KMPX 310510
RWRMN
WEATHER ROUNDUP FOR MINNESOTA
NATIONAL WEATHER SERVICE TWIN CITIES/CHANHASSEN MN
1200 AM CDT SUN AUG 31 2014


NOTE: "FAIR" INDICATES FEW OR NO CLOUDS BELOW 12,000 FEET WITH NO
SIGNIFICANT WEATHER AND/OR OBSTRUCTIONS TO VISIBILITY. N/A MEANS
CURRENT SKY AND/OR WEATHER CONDITIONS ARE NOT AVAILABLE.

MNZ060>063-068>070-310600-
   Twin Cities Metro

CITY           SKY/WX    TMP DP  RH WIND       PRES   REMARKS
TWIN CITIES    PTCLDY    66  62  87 SE7       29.88S
ST PAUL        PTCLDY    65  61  87 SE8       29.88F
CRYSTAL        PTCLDY    67  59  75 E6        29.86F
BLAINE         CLEAR     66  63  88 SE6       29.88S
LAKEVILLE      PTCLDY    63  61  94 CALM      29.88F
EDEN PRAIRIE   CLEAR     64  61  90 SE7       29.86F
SOUTH ST PAUL  CLEAR     65  61  85 SE3       29.88F
LAKE ELMO      CLOUDY    64  61  88 CALM      29.90S
$$
MNZ001>005-007-008-013>017-022>024-027-028-310600-
   Northwest Minnesota

CITY           SKY/WX    TMP DP  RH WIND       PRES   REMARKS
BEMIDJI        CLOUDY    62  60  91 SE7       29.83F
HALLOCK        CLEAR     55  54  94 SE8       29.78R
ROSEAU         CLEAR     57  52  82 SE7       29.80F
WARROAD        CLEAR     55  52  88 SE6       29.81F
THIEF RVR FALL CLOUDY    63  59  88 S6        29.81R
CROOKSTON      MOCLDY    59  57  94 S7        29.80R
FOSSTON        PTCLDY    59  55  88 SE6       29.83R
DETROIT LAKES  CLOUDY    63  61  94 S9        29.85R
MOORHEAD       CLEAR     61  61 100 S6        29.83R
PARK RAPIDS    CLOUDY    62  61  96 SE7       29.83F
MAHNOMEN       FAIR      59  58  96 SE5       29.82R
$$
MNZ006-009>011-018-025>026-310600-
   North Central Minnesota

CITY           SKY/WX    TMP DP  RH WIND       PRES   REMARKS
BAUDETTE       MOCLDY    57  54  89 SE6       29.83F
FLAG ISLAND    CLOUDY    64  55  72 SE16      29.80F
INTL FALLS     CLEAR     46  45  96 SE3       29.86S
WASKISH        CLOUDY    61  57  88 E6        29.83F
BIG FORK       MOCLDY    61  57  88 SE8       29.86F
LONGVILLE      MOCLDY    61  61 100 CALM      29.84F
GRAND RAPIDS   CLOUDY    61  57  88 SE7       29.87F
CRANE LAKE     CLEAR     46  46 100 CALM      29.89F
ORR            MOCLDY    55  54  94 SE3       29.86S
COOK           CLOUDY    61  57  88 SE6       29.90S
WALKER         CLOUDY    63  60  91 SE6       29.83F
$$
MNZ012-019>021-037-310600-
   Northeast Minnesota

CITY           SKY/WX    TMP DP  RH WIND       PRES   REMARKS
DULUTH         CLOUDY    60  57  89 SE12      29.91S
ELY            CLOUDY    57  55  94 S6        29.91F
HIBBING        CLOUDY    61  58  90 SE7       29.90F
EVELETH        CLOUDY    59  59 100 SE6       29.91F
DULUTH HARBOR  CLOUDY    63  61  94 E5        29.92S
TWO HARBORS    CLOUDY    57  54  88 CALM      29.90F
SILVER BAY     CLEAR     57  57 100 CALM      29.91S
GRAND MARAIS     N/A     55  53  93 CALM      29.91S
G MARAIS ARPRT CLEAR     48  45  87 CALM      29.94F FOG
$$
MNZ029>031-032-039>041-046>048-054>057-064-310600-
   West Central Minnesota

CITY           SKY/WX    TMP DP  RH WIND       PRES   REMARKS
FERGUS FALLS   CLEAR     59  57  94 S3        29.85R
WHEATON        CLEAR     55  55 100 SE6       29.85R
MORRIS         CLEAR     59  57  94 S5        29.83R FOG
ALEXANDRIA     CLEAR     60  59  96 S6        29.85S
ELBOW LAKE     FAIR      58  57  98 S5        29.85R
WADENA         MOCLDY    61  61 100 E3        29.83S FOG
GLENWOOD       FOG       59  59 100 SE6       29.86R VSB 1
APPLETON       CLEAR     63  59  88 SE7       29.83R
BENSON         CLEAR     61  59  94 S6        29.84R
ORTONVILLE     CLEAR     61  57  88 S5        29.84R
MADISON        CLEAR     63  61  94 S5        29.84R
WILLMAR        FAIR      61  57  88 SE5       29.86S FOG
$$
MNZ033>034-036-042>043-049>051-058-059-310600-
   Central Minnesota

CITY           SKY/WX    TMP DP  RH WIND       PRES   REMARKS
ST CLOUD       CLOUDY    67  64  90 SE5       29.85F
SAUK CENTRE    FAIR      61  59  94 CALM      29.85S
PAYNESVILLE    HVY RAIN  61  61 100 E6        29.85F
AITKIN         MOCLDY    66  61  82 E6        29.85F
PINE RIVER     CLOUDY    63  63 100 SE6       29.87F
BRAINERD       CLOUDY    63  61  93 SE7       29.85F
STAPLES        PTCLDY    61  61 100 CALM      29.83F FOG
LONG PRAIRIE   FAIR      63  61  94 SE3       29.85S
LITTLE FALLS   CLOUDY    64  61  88 SE6       29.84F
LITCHFIELD     CLEAR     63  63 100 CALM      29.86F FOG
BUFFALO        CLEAR     64  61  92 SE3       29.87F
MAPLE LAKE     MOCLDY    66  65  97 SE3       29.87F
$$
MNZ037-044-045-052-053-310600-
   East Central Minnesota

CITY           SKY/WX    TMP DP  RH WIND       PRES   REMARKS
PRINCETON      MOCLDY    66  63  88 E5        29.87F
MORA           MOCLDY    61  57  88 SE3       29.90S
CAMBRIDGE      CLEAR     64  57  77 E3        29.86F
RUSH CITY      PTCLDY    62  59  91 CALM      29.89F
MOOSE LAKE     MOCLDY    61  57  88 CALM      29.87F
HINCKLEY       FAIR      63  61  94 E5        29.89F
CLOQUET        CLOUDY    61  57  88 E7        29.90F
MCGREGOR       CLOUDY    63  61  94 SE8       29.88F
$$
MNZ071>073-080-081-089-090-097-098-310600-
   Southwest Minnesota

CITY           SKY/WX    TMP DP  RH WIND       PRES   REMARKS
MONTEVIDEO     CLEAR     59  59 100 S6        29.85R FOG
GRANITE FALLS  CLEAR     61  60  98 SE6       29.86R
CANBY          CLEAR     60  59  97 S5        29.85R
MARSHALL       CLEAR     61  57  88 S8        29.84R
REDWOOD FALLS  CLEAR     62  61  96 E7        29.84F
OLIVIA         CLEAR     61  59  94 SE7       29.84F
PIPESTONE      CLEAR     63  59  88 SE6       29.85F
WINDOM         CLEAR     63  61  94 SE5       29.87S
WORTHINGTON    CLEAR     63  61  94 S6        29.88F
JACKSON        CLEAR     63  59  88 S5        29.88S
TRACY          CLEAR     62  61  96 CALM      29.86R
SLAYTON        CLEAR     58  58  99 CALM      29.88S
$$
MNZ065>067-074>077-082>085-091>093-310600-
   South Central Minnesota

CITY           SKY/WX    TMP DP  RH WIND       PRES   REMARKS
MANKATO        CLEAR     63  57  82 SE8       29.87F
NEW ULM        CLEAR     61  61 100 SE3       29.86S
ST JAMES       FOG       63  61  94 E3        29.87F VSB 1
FAIRMONT       CLEAR     63  57  82 SE5       29.87F
GLENCOE        CLEAR     65  61  88 SE6       29.86S
FARIBAULT      CLEAR     66  61  82 E5        29.89S
OWATONNA       CLEAR     64  63  94 E5        29.89F
WASECA         CLEAR     61  55  82 E3        29.90F FOG
ALBERT LEA     CLEAR     64  63  94 CALM      29.89F FOG
$$
MNZ078>079-086>088-094>096-310600-
   Southeast Minnesota

CITY           SKY/WX    TMP DP  RH WIND       PRES   REMARKS
ROCHESTER      CLEAR     63  60  90 SE5       29.91F
RED WING       CLOUDY    64  63  94 E3        29.88F
STANTON        CLOUDY    66  62  85 SE7       29.88S
DODGE CENTER   PTCLDY    64  63  94 E5        29.90F
WINONA         CLEAR     63  61  94 CALM      29.91S
AUSTIN         PTCLDY    61  61 100 CALM      29.90S FOG
PRESTON        FOG       62  62 100 CALM      29.92S VSB 3/4
$$
ABBREVIATIONS USED IN REMARKS
   TC - TEMPERATURES IN CELSIUS
  WCI - WIND CHILL INDEX
   HX - HEAT INDEX
  VSB - VISIBILITY
$$


USA.gov is the U.S. government's official web portal to all federal, state and local government web resources and services.